Вернуться в каталог

STARLINK-5211

АктивенСвязьVLEO
NORAD 54086·PAYLOAD·🇺🇸 United States

Запущен Oct 20, 2022 с Cape Canaveral Space Force Station

Loading…

Ближайшие Пролёты (ближайшие 24 часа)

TLE

СвежийSource: CelesTrak SupGP

Эпоха: Sep 15, 2026, 03:03 UTC

1 54086C 22136AM  26258.12756944  .00011174  00000+0  33018-3 0  2587
2 54086  53.1600 180.6742 0001528  85.0480 102.6564 15.34381633    11

Отслеживайте STARLINK-5211 в реальном времени с AllMySat

Download on the App Store